When you browse on this site, cookies collect data to enhance your experience and personalize the content and advertising you see.
Visit our Privacy Policy to learn more. By continuing to use the site, you agree to this use of cookies and data.
  • Em Portugal
  • Lista de países
  • Para 7 dias
  • Temperatura da água
  • Mapa do tempo
  • Widgets de tempo
  • user-avatar
    Iniciar Sessão

    Previsão horária em Brusbeno

    Hoje, 23 Setembro, Segunda-feira

    Tempo Temperatura Precipitação Vento Pressão Humidade
    00:00 +18°C° 0 mm 2 m/s 766 mmHg 80%
    01:00 +18°C° 0 mm 2 m/s 766 mmHg 80%
    02:00 +17°C° 0 mm 2 m/s 766 mmHg 80%
    03:00 +17°C° 0 mm 2 m/s 766 mmHg 81%
    04:00 +17°C° 0 mm 2 m/s 765 mmHg 83%
    05:00 +17°C° 0 mm 2 m/s 766 mmHg 80%
    06:00 +18°C° 0 mm 2 m/s 766 mmHg 76%
    07:00 +19°C° 0 mm 2 m/s 766 mmHg 73%
    08:00 +23°C° 0 mm 2 m/s 766 mmHg 62%
    09:00 +25°C° 0 mm 2 m/s 766 mmHg 52%
    10:00 +28°C° 0 mm 2 m/s 765 mmHg 41%
    11:00 +30°C° 0 mm 2 m/s 764 mmHg 38%
    12:00 +31°C° 0 mm 3 m/s 764 mmHg 35%
    13:00 +33°C° 0 mm 3 m/s 763 mmHg 32%
    14:00 +31°C° 0 mm 3 m/s 763 mmHg 38%
    15:00 +30°C° 0 mm 3 m/s 762 mmHg 44%
    16:00 +28°C° 0 mm 4 m/s 762 mmHg 50%
    17:00 +27°C° 0 mm 3 m/s 763 mmHg 57%
    18:00 +25°C° 0 mm 3 m/s 763 mmHg 64%
    19:00 +22°C° 0 mm 3 m/s 763 mmHg 71%
    20:00 +23°C° 0 mm 2 m/s 764 mmHg 64%
    21:00 +21°C° 0 mm 2 m/s 764 mmHg 57%
    22:00 +21°C° 0 mm 2 m/s 765 mmHg 50%
    23:00 +20°C° 0 mm 2 m/s 765 mmHg 57%

    Amanhã, 24 Setembro, Terça-feira

    Tempo Temperatura Precipitação Vento Pressão Humidade
    00:00 +19°C° 0 mm 3 m/s 765 mmHg 65%
    01:00 +18°C° 0 mm 3 m/s 765 mmHg 72%
    02:00 +17°C° 0 mm 3 m/s 765 mmHg 76%
    03:00 +17°C° 0 mm 3 m/s 765 mmHg 79%
    04:00 +17°C° 0 mm 3 m/s 765 mmHg 83%
    05:00 +17°C° 0 mm 3 m/s 765 mmHg 78%
    06:00 +18°C° 0 mm 3 m/s 766 mmHg 74%
    07:00 +19°C° 0 mm 3 m/s 766 mmHg 69%
    08:00 +20°C° 0 mm 4 m/s 766 mmHg 61%
    09:00 +22°C° 0 mm 4 m/s 767 mmHg 52%
    10:00 +25°C° 0 mm 4 m/s 767 mmHg 43%
    11:00 +25°C° 0 mm 4 m/s 766 mmHg 42%
    12:00 +26°C° 0 mm 5 m/s 766 mmHg 41%
    13:00 +26°C° 0 mm 5 m/s 765 mmHg 40%
    14:00 +25°C° 0 mm 5 m/s 765 mmHg 44%
    15:00 +23°C° 0 mm 5 m/s 765 mmHg 48%
    16:00 +22°C° 0 mm 5 m/s 765 mmHg 52%
    17:00 +21°C° 0 mm 4 m/s 765 mmHg 58%
    18:00 +20°C° 0 mm 4 m/s 766 mmHg 63%
    19:00 +19°C° 0 mm 3 m/s 767 mmHg 68%
    20:00 +19°C° 0 mm 3 m/s 767 mmHg 71%
    21:00 +19°C° 0 mm 3 m/s 767 mmHg 73%
    22:00 +18°C° 0 mm 2 m/s 767 mmHg 75%
    23:00 +18°C° 0 mm 2 m/s 767 mmHg 76%

    Depois de amanhã, 25 Setembro, Quarta-feira

    Tempo Temperatura Precipitação Vento Pressão Humidade
    00:00 +18°C° 0 mm 2 m/s 767 mmHg 76%
    01:00 +18°C° 0 mm 2 m/s 767 mmHg 77%
    02:00 +18°C° 0.1 mm 2 m/s 767 mmHg 77%
    03:00 +18°C° 0.1 mm 2 m/s 767 mmHg 78%
    04:00 +18°C° 0.1 mm 2 m/s 767 mmHg 79%
    05:00 +18°C° 0.1 mm 2 m/s 767 mmHg 77%
    06:00 +18°C° 0.1 mm 2 m/s 767 mmHg 76%
    07:00 +19°C° 0.1 mm 2 m/s 768 mmHg 74%
    08:00 +20°C° 0 mm 2 m/s 768 mmHg 67%
    09:00 +23°C° 0 mm 2 m/s 768 mmHg 61%
    10:00 +24°C° 0 mm 2 m/s 768 mmHg 54%
    11:00 +25°C° 0 mm 3 m/s 767 mmHg 52%
    12:00 +25°C° 0 mm 3 m/s 767 mmHg 50%
    13:00 +25°C° 0 mm 3 m/s 766 mmHg 49%
    14:00 +25°C° 0 mm 3 m/s 766 mmHg 50%
    15:00 +23°C° 0 mm 4 m/s 766 mmHg 51%
    16:00 +23°C° 0 mm 4 m/s 765 mmHg 52%
    17:00 +22°C° 0 mm 3 m/s 766 mmHg 59%
    18:00 +20°C° 0 mm 3 m/s 766 mmHg 66%
    19:00 +19°C° 0 mm 3 m/s 767 mmHg 73%
    20:00 +18°C° 0 mm 3 m/s 767 mmHg 75%
    21:00 +18°C° 0 mm 2 m/s 767 mmHg 78%
    22:00 +17°C° 0 mm 2 m/s 768 mmHg 81%
    23:00 +17°C° 0 mm 2 m/s 768 mmHg 80%

    26 Setembro, Quinta-feira

    Tempo Temperatura Precipitação Vento Pressão Humidade
    00:00 +17°C° 0 mm 2 m/s 768 mmHg 80%
    01:00 +18°C° 0 mm 1 m/s 767 mmHg 80%
    02:00 +19°C° 0 mm 1 m/s 767 mmHg 79%
    03:00 +19°C° 0 mm 1 m/s 767 mmHg 78%
    04:00 +19°C° 0 mm 1 m/s 767 mmHg 76%
    05:00 +19°C° 0 mm 1 m/s 768 mmHg 75%
    06:00 +20°C° 0 mm 1 m/s 768 mmHg 73%
    07:00 +20°C° 0 mm 1 m/s 768 mmHg 71%
    08:00 +21°C° 0 mm 1 m/s 768 mmHg 66%
    09:00 +21°C° 0 mm 2 m/s 768 mmHg 61%
    10:00 +23°C° 0 mm 2 m/s 768 mmHg 56%
    11:00 +23°C° 0 mm 2 m/s 767 mmHg 54%
    12:00 +24°C° 0 mm 2 m/s 767 mmHg 53%
    13:00 +24°C° 0 mm 3 m/s 766 mmHg 52%
    14:00 +24°C° 0 mm 3 m/s 766 mmHg 53%
    15:00 +22°C° 0 mm 3 m/s 765 mmHg 55%
    16:00 +22°C° 0 mm 4 m/s 765 mmHg 56%
    17:00 +21°C° 0 mm 3 m/s 765 mmHg 60%
    18:00 +21°C° 0 mm 3 m/s 765 mmHg 63%
    19:00 +20°C° 0 mm 3 m/s 766 mmHg 66%
    20:00 +19°C° 0.1 mm 3 m/s 766 mmHg 69%
    21:00 +19°C° 0.1 mm 2 m/s 766 mmHg 72%
    22:00 +19°C° 0.1 mm 2 m/s 766 mmHg 75%
    23:00 +18°C° 0.3 mm 2 m/s 766 mmHg 77%

    27 Setembro, Sexta-feira

    Tempo Temperatura Precipitação Vento Pressão Humidade
    00:00 +19°C° 0.3 mm 1 m/s 766 mmHg 79%
    01:00 +19°C° 0.3 mm 1 m/s 766 mmHg 81%
    02:00 +18°C° 0.1 mm 1 m/s 766 mmHg 82%
    03:00 +18°C° 0.1 mm 1 m/s 765 mmHg 83%
    04:00 +16°C° 0.1 mm 1 m/s 765 mmHg 84%
    05:00 +18°C° 0 mm 1 m/s 765 mmHg 81%
    06:00 +19°C° 0 mm 1 m/s 766 mmHg 79%
    07:00 +19°C° 0 mm 1 m/s 766 mmHg 76%
    08:00 +22°C° 0 mm 1 m/s 766 mmHg 66%
    09:00 +24°C° 0 mm 2 m/s 765 mmHg 56%
    10:00 +26°C° 0 mm 2 m/s 765 mmHg 46%
    11:00 +27°C° 0 mm 2 m/s 764 mmHg 44%
    12:00 +27°C° 0 mm 3 m/s 763 mmHg 43%
    13:00 +28°C° 0 mm 3 m/s 763 mmHg 41%
    14:00 +27°C° 0 mm 3 m/s 762 mmHg 43%
    15:00 +27°C° 0 mm 4 m/s 762 mmHg 45%
    16:00 +26°C° 0 mm 4 m/s 761 mmHg 47%
    17:00 +23°C° 0 mm 4 m/s 762 mmHg 56%
    18:00 +22°C° 0 mm 4 m/s 762 mmHg 64%
    19:00 +20°C° 0 mm 4 m/s 763 mmHg 73%
    20:00 +19°C° 0 mm 3 m/s 763 mmHg 74%
    21:00 +19°C° 0 mm 3 m/s 764 mmHg 76%
    22:00 +18°C° 0 mm 2 m/s 764 mmHg 78%
    23:00 +17°C° 0 mm 2 m/s 764 mmHg 76%

    28 Setembro, Sábado

    Tempo Temperatura Precipitação Vento Pressão Humidade
    00:00 +17°C° 0 mm 2 m/s 764 mmHg 75%
    01:00 +17°C° 0 mm 2 m/s 764 mmHg 73%
    02:00 +16°C° 0 mm 2 m/s 763 mmHg 72%
    03:00 +16°C° 0 mm 2 m/s 763 mmHg 71%
    04:00 +15°C° 0 mm 1 m/s 763 mmHg 69%
    05:00 +16°C° 0 mm 1 m/s 764 mmHg 63%
    06:00 +18°C° 0 mm 1 m/s 764 mmHg 57%
    07:00 +19°C° 0 mm 1 m/s 764 mmHg 50%
    08:00 +22°C° 0 mm 1 m/s 764 mmHg 42%
    09:00 +25°C° 0 mm 1 m/s 764 mmHg 33%
    10:00 +29°C° 0 mm 1 m/s 764 mmHg 25%
    11:00 +29°C° 0 mm 2 m/s 763 mmHg 24%
    12:00 +30°C° 0 mm 2 m/s 763 mmHg 23%
    13:00 +31°C° 0 mm 3 m/s 762 mmHg 22%
    14:00 +30°C° 0 mm 3 m/s 762 mmHg 28%
    15:00 +28°C° 0 mm 4 m/s 762 mmHg 33%
    16:00 +27°C° 0 mm 4 m/s 762 mmHg 39%
    17:00 +25°C° 0 mm 4 m/s 762 mmHg 53%
    18:00 +22°C° 0 mm 4 m/s 763 mmHg 66%
    19:00 +20°C° 0 mm 3 m/s 764 mmHg 80%
    20:00 +20°C° 0 mm 2 m/s 764 mmHg 82%
    21:00 +19°C° 0 mm 2 m/s 765 mmHg 85%
    22:00 +20°C° 0 mm 1 m/s 765 mmHg 87%
    23:00 +19°C° 0 mm 1 m/s 765 mmHg 88%
    Mostrar mais